Location: Berg
(48.4333°N, 13.9167°E)
Time: 18:55:55
(UTC+00:00)

NOSS 3-2 (C) - Visible Passes

Search period start: 26 January 2021 00:00
Search period end: 05 February 2021 00:00
Orbit: 789 x 1424 km, 63.4° (Epoch: 09 January)

Date Brightness Start Highest point End Pass type
(mag) Time Alt. Az. Time Alt. Az. Time Alt. Az.
26 Jan 5.2 04:09:34 10° S 04:14:20 29° ESE 04:19:38 10° NE visible
26 Jan 3.5 05:58:57 10° SW 06:04:40 64° NW 06:11:21 10° NE visible
27 Jan 5.8 03:26:26 10° SSE 03:30:05 18° ESE 03:34:00 10° ENE visible
27 Jan 3.4 05:14:09 10° SW 05:19:52 89° ESE 05:26:30 10° NE visible
28 Jan 3.9 04:29:40 10° SSW 04:35:12 60° ESE 04:41:35 10° NE visible
29 Jan 4.6 03:46:28 15° S 03:50:43 38° ESE 03:56:32 10° NE visible
29 Jan 3.7 05:35:43 10° WSW 05:41:24 52° NW 05:48:01 10° NE visible
30 Jan 5.2 03:04:07 19° SE 03:06:23 24° ESE 03:11:14 10° ENE visible
30 Jan 3.3 04:51:37 15° SW 04:56:29 73° NW 05:03:10 10° NE visible
31 Jan 5.7 02:21:31 14° ESE 02:22:11 14° ESE 02:25:15 10° ENE visible
31 Jan 3.4 04:09:00 33° SSW 04:11:44 78° SE 04:18:19 10° NE visible
31 Jan 4.3 05:57:53 10° W 06:03:20 34° NNW 06:09:35 10° NE visible
01 Feb 4.0 03:26:14 46° SSE 03:27:09 51° ESE 03:33:21 10° NE visible
01 Feb 3.9 05:13:43 16° W 05:18:11 44° NW 05:24:41 10° NE visible
02 Feb 4.8 02:43:21 31° ESE 02:43:21 31° ESE 02:48:14 10° NE visible
02 Feb 3.5 04:30:49 36° WSW 04:33:11 59° NW 04:39:51 10° NE visible
03 Feb 5.7 02:00:21 17° E 02:00:21 17° E 02:02:44 10° ENE visible
03 Feb 3.2 03:47:48 75° WSW 03:48:20 84° NW 03:55:00 10° NE visible
03 Feb 4.5 05:35:15 12° W 05:40:14 30° NNW 05:46:20 10° NE visible
04 Feb 3.9 03:04:43 56° ENE 03:04:43 56° ENE 03:10:06 10° NE visible
04 Feb 4.2 04:52:10 25° WNW 04:55:02 37° NNW 05:01:23 10° NE visible
